This is the latest recevied weather packets stored in our database for station/object IW1CBG-3. If no packets are shown the sender has not sent any weather packets the latest 1 day(s).
| Time | Temp. | Humidity | Pressure | Rain* | Wind** | Luminosity | Snow |
|---|---|---|---|---|---|---|---|
| 1778041069 | 8.89° C | 99% | 1021 hPa | 0 mm | 0 m/s | - | - |
| 1778040469 | 8.89° C | 99% | 1021 hPa | 0 mm | 0 m/s | - | - |
| 1778039868 | 8.89° C | 99% | 1021.1 hPa | 0 mm | 0 m/s | - | - |
| 1778039269 | 8.89° C | 99% | 1021.1 hPa | 0 mm | 0.89 m/s, 132° | - | - |
| 1778038669 | 8.89° C | 99% | 1021.1 hPa | 0 mm | 1.34 m/s, 110° | - | - |
| 1778038069 | 8.89° C | 99% | 1021 hPa | 0 mm | 1.79 m/s, 292° | - | - |
| 1778037469 | 8.89° C | 99% | 1021.5 hPa | 0 mm | 0.89 m/s, 276° | - | - |
| 1778036869 | 8.89° C | 99% | 1021.5 hPa | 0 mm | 0.89 m/s, 121° | - | - |
| 1778036269 | 8.89° C | 99% | 1021.7 hPa | 0 mm | 0.89 m/s, 183° | - | - |
| 1778035669 | 8.89° C | 99% | 1021.5 hPa | 0 mm | 0 m/s | - | - |
| 1778035068 | 9.44° C | 99% | 1021.5 hPa | 0 mm | 1.34 m/s, 143° | - | - |
| 1778034469 | 9.44° C | 99% | 1021.6 hPa | 0 mm | 0.45 m/s, 144° | - | - |
| 1778033870 | 9.44° C | 99% | 1022 hPa | 0 mm | 1.79 m/s, 115° | - | - |
| 1778033269 | 9.44° C | 99% | 1022.1 hPa | 0 mm | 0 m/s | - | - |
| 1778032668 | 9.44° C | 99% | 1022.1 hPa | 0 mm | 0.89 m/s, 114° | - | - |
| 1778032069 | 9.44° C | 99% | 1022.2 hPa | 0 mm | 2.24 m/s, 137° | - | - |
| 1778031468 | 9.44° C | 99% | 1022.1 hPa | 0 mm | 2.24 m/s, 167° | - | - |
| 1778030869 | 9.44° C | 99% | 1022.4 hPa | 0 mm | 0 m/s | - | - |
| 1778030267 | 9.44° C | 99% | 1022.5 hPa | 0 mm | 0 m/s | - | - |
| 1778029671 | 9.44° C | 99% | 1022.4 hPa | 0 mm | 0.89 m/s, 165° | - | - |
| 1778029067 | 9.44° C | 99% | 1022.4 hPa | 0 mm | 0 m/s | - | - |
| 1778027867 | 9.44° C | 99% | 1022.4 hPa | 0 mm | 0 m/s | - | - |
| 1778027267 | 9.44° C | 99% | 1022.8 hPa | 0 mm | 0 m/s | - | - |
| 1778026668 | 9.44° C | 99% | 1022.9 hPa | 0 mm | 0.89 m/s, 148° | - | - |
| 1778026067 | 9.44° C | 99% | 1023.1 hPa | 0 mm | 0 m/s | - | - |
* Rain latest hour (hover to see other rain measurements)
** Current wind speed in m/s (hover to see current wind gust speed)